Regional Weather Roundup
Issued by NWS

Home | Current Version | Previous Version | Graphics & Text | Print | Product List | Glossary Off
Versions: 1 2 3 4 5 6 7 8 9 10 11 12 13 14 15 16 17 18 19 20 21 22 23 24 25 26 27 28 29 30 31 32 33 34 35 36 37 38 39 40 41 42 43 44 45 46 47 48 49 50

000
ASUS44 KFWD 280415
RWRTX
NORTH TEXAS HOURLY WEATHER ROUNDUP
NATIONAL WEATHER SERVICE FORT WORTH TX
1100 PM CDT WED MAY 27 2015

NOTE: "FAIR" INDICATES FEW OR NO CLOUDS BELOW 12,000 FEET WITH NO
SIGNIFICANT WEATHER AND/OR OBSTRUCTIONS TO VISIBILITY.

TXZ118-119-280500-
DALLAS/FORT WORTH METROPLEX

CITY           SKY/WX    TMP DP  RH WIND       PRES   REMARKS
DFW AIRPORT    CLOUDY    72  68  87 NE5       30.02R
DALLAS LOVE    CLOUDY    77  70  79 SE8       30.02S
FTW MEACHAM    PTCLDY    70  67  90 CALM      30.02R
DAL-EXECUTIVE  CLOUDY    76  70  82 S9        30.01F
FTW-ALLIANCE   MOCLDY    69  65  86 CALM      30.03R
FTW-NAS-JRB    PTCLDY    73  69  87 SE5       30.02R
FTW-SPINKS     MOCLDY    74  70  88 S9        30.04S
ARLINGTON      CLOUDY    75  70  84 S8        30.02F
GRAND PRAIRIE  MOCLDY    74  71  88 S8        30.03S
ADDISON        CLOUDY    78  71  79 SE7       30.06R
MESQUITE       CLOUDY    75  71  87 SE10      30.01F
LANCASTER      CLOUDY    74  69  83 SE12      30.00F
$$

TXZ091>094-102>105-117-120-121-131>134-280500-
NORTH CENTRAL TEXAS

CITY           SKY/WX    TMP DP  RH WIND       PRES   REMARKS
SHRMAN/DENISON MOCLDY    76  71  84 SE6       30.05R
GAINESVILLE    PTCLDY    70  62  76 CALM      30.07S
BOWIE          CLEAR     67  62  84 CALM      30.04S
BRIDGEPORT     CLEAR     70  65  84 S7        30.04F
DECATUR        PTCLDY    68  61  77 S6        30.04R
DENTON         MOCLDY    71  69  93 CALM      30.04R
MCKINNEY       CLOUDY    76  71  85 SE5       30.04R
GREENVILLE     CLOUDY    77  70  78 CALM      30.05F
ROCKWALL       CLOUDY   N/A N/A N/A SE5       30.03R
TERRELL        CLOUDY    75  70  84 SE10      30.01F
WAXAHACHIE     CLOUDY    74  74  99 SE12      30.03F
CLEBURNE       CLOUDY    73  72  94 SE9       30.05F
GRANBURY         N/A     75  72  90 SE6       30.04F
$$

TXZ083>090-098>101-113>116-127>130-139>142-154-155-280500-
WESTERN NORTH TEXAS

CITY           SKY/WX    TMP DP  RH WIND       PRES   REMARKS
WICHITA FALLS  CLOUDY    73  70  90 E10       30.01R
WF-KICKAPOO    CLOUDY    74  70  86 E6        30.03S
VERNON         CLOUDY    75  66  73 SE9       30.03R
ABILENE        MOCLDY    76  69  79 SE10      30.02R
BRECKENRIDGE   PTCLDY    75  69  79 SE12G20   30.03S
GRAHAM         MOCLDY    71  68  89 SE9       30.01F
MINERAL WELLS  PTCLDY    72  68  87 S6        30.02F
STEPHENVILLE   CLOUDY    75  71  86 SE6       30.09S
COMANCHE       MOCLDY    74  74 100 SE9       30.05S
BROWNWOOD      CLOUDY    75  72  88 E9        30.05R
COLEMAN        CLOUDY    75  72  89 SE9       30.04R
BRADY          CLEAR     73  73 100 SE7       30.04R
$$

TXZ143>147-156>162-174-175-280500-
CENTRAL TEXAS

CITY           SKY/WX    TMP DP  RH WIND       PRES   REMARKS
WACO           MOCLDY    77  71  82 SE9       30.05R
WACO-TSTC      CLEAR     77  72  83 CALM      30.05R
WACO-MCGREGOR    N/A    N/A N/A N/A MISG        N/A
HILLSBORO      CLOUDY   N/A N/A N/A E7        30.05S
CORSICANA      CLOUDY    77  73  87 SE7       30.07S
MEXIA          MOCLDY    74  71  92 SE3       30.06R
HEARNE         MOCLDY    76  73  88 CALM      30.07R
CAMERON        PTCLDY    77  73  86 SE7       30.06R
TEMPLE         MOCLDY    75  70  83 SE10      30.05R
KILLEEN        NOT AVBL
KILLEEN-SKYLRK MOCLDY    75  70  83 SE9       30.06R
GATESVILLE     MOCLDY    77  72  83 SE5       30.08R
HAMILTON       MOCLDY    76  74  93 SE12G20   30.07R
LAMPASAS       MOCLDY    76  73  91 E5        30.06R
$$

TXZ095>097-106>112-122>126-135>138-148>153-164>167-280500-
EAST TEXAS

CITY           SKY/WX    TMP DP  RH WIND       PRES   REMARKS
PARIS          CLOUDY    73  64  73 E7        30.07R
SULPHUR SPRNGS CLOUDY    79  70  73 SE6       30.08R
MOUNT PLEASANT CLOUDY    75  69  80 CALM      30.08R
GILMER         CLOUDY    76  72  88 CALM      30.07R
TYLER          CLOUDY    76  70  82 SE6       30.07R
LONGVIEW       CLOUDY    76  74  93 S5        30.06R
MARSHALL       MOCLDY    76  72  87 CALM      30.09R
ATHENS         CLOUDY    73  70  88 CALM      30.05F
PALESTINE      MOCLDY    75  72  89 CALM      30.08S
JACKSONVILLE   CLOUDY    76  70  81 CALM      30.11R
NACOGDOCHES    CLOUDY    73  72  94 CALM      30.08R
LUFKIN         MOCLDY    76  71  85 CALM      30.07R
$$

SUPPLEMENTAL OBSERVATIONS (CENTRAL)

CITY           SKY/WX    TMP DP  RH WIND       PRES   REMARKS
LAKE TEXOMA      N/A     75  68  78 E2          N/A
CADDO GRASSLND   N/A     75  68  78 E2          N/A
PAT MAYSE LAKE   N/A     73  68  83 NE5         N/A
GREENVILLE       N/A     75  68  78 S3          N/A
CEDAR HILL       N/A     75  70  83 S12         N/A
LAKE LIMESTONE   N/A     75  70  83 SE5         N/A
MCGREGOR         N/A     75  70  83 S7          N/A
TEMPLE           N/A     75  72  88 SE8         N/A
$$

SUPPLEMENTAL OBSERVATIONS (WEST)

CITY           SKY/WX    TMP DP  RH WIND       PRES   REMARKS
MILLERS CREEK    N/A     73  68  83 SE13        N/A
POSSUM KINGDOM   N/A     72  66  83 E8          N/A
GRANBURY         N/A     75  70  83 SE7         N/A
COMANCHE         N/A     73  68  83 SE9         N/A
HAMBY            N/A     73  68  83 SE8         N/A
IVIE RESERVOIR   N/A     73  68  83 SE7         N/A
COLORADO BEND    N/A     75  72  88 S8          N/A
$$

SUPPLEMENTAL OBSERVATIONS (EAST)

CITY           SKY/WX    TMP DP  RH WIND       PRES   REMARKS
CLARKSVILLE      N/A     75  72  88 SE2         N/A
CADDO LAKE       N/A     70  68  94 CALM        N/A
GILMER           N/A     75  72  88 CALM        N/A
HENDERSON        N/A     75  70  83 S3          N/A
LUFKIN           N/A     73  70  88 MISG        N/A
N SABINE NF      N/A     72  70  94 MISG        N/A
S SABINE NF      N/A     72  70  94 CALM        N/A
$$

SUPPLEMENTAL OBSERVATIONS ARE A COLLECTION OF AUTOMATED INSTRUMENTS
THAT ARE MAINTAINED BY A VARIETY OF FEDERAL AND STATE AGENCIES.
CERTAIN ELEMENTS...SUCH AS HUMIDITY VALUES AND SUSTAINED WIND
SPEEDS...MAY BE APPROXIMATED.




USA.gov is the U.S. government's official web portal to all federal, state and local government web resources and services.